Вернуться в каталог

STARLINK-37991

АктивенСвязьSSO
NORAD 100124·PAYLOAD·🇺🇸 United States

Запущен Jul 21, 2026 с Vandenberg Space Force Base

Loading…

Ближайшие Пролёты (ближайшие 24 часа)

TLE

СвежийSource: Space-Track

Эпоха: Sep 13, 2026, 23:44 UTC

1 A0124U 26166Z   26256.98951195  .00002497  00000-0  17607-4 0  9993
2 A0124  97.2822 275.2501 0000902 112.5681 247.5680 15.75187868  8596

Отслеживайте STARLINK-37991 в реальном времени с AllMySat

Download on the App Store